STARLINK-11518, 62462

Orbit data source: Space-Track

STARLINK-11518, 62462 is a payload satellite owned by SpaceX/Seattle (US) in LEO that was launched on Tue, 31 Dec 2024 UTC via an FALCON 9 launch vehicle from the Air Force Eastern Test Range (AFETR). Payload-class satellites include a variety of spacecraft equipped with specific instruments for various scientific and technological missions. These include communications satellites like Starlink; space stations such as the ISS; scientific satellites like the Hubble; Earth observation satellites from companies like Planet Labs, Umbra, and HawkEye 360; GPS; miniature CubeSats for education and research; and military/defense satellites.

Loading next visibility...
Identifier
62462, 2024-254A
Orbit
LEO
Country
Flag of USUS
Related business
Manufacturer
SpaceX/Seattle
Mission
Operational Commercial Communications
Bus & Motor
STARLINK V2MD, Unknown motor
Mass
960 kg wet, ~910 kg dry
Launch date (UTC)
2024-12-31 (1 year ago)
Launch vehicle
FALCON 9
Launch site
Air Force Eastern Test Range (AFETR)
Object type
Payload
Rocket body
Debris
Shape & HBR
Box + 2 Pan, 18.1 m
Radar Cross Section
36.964 m², Large (>1 m²)

Expand to show TLE details & history
Last TLE update: 7 hours ago

TLE from 7 hours ago
0 STARLINK-11518
1 62462U 24254A   26034.39786892  .00212219  00000-0  16126-2 0  9999
2 62462  43.0020  70.0760 0002608 273.4815  86.5754 15.70882003 64017
Epoch: 2026-02-03T09:32Z
TLE epoch observation values (Epoch: 2026-02-03T09:32:55.874Z)
Latitude
-0.00005°
Longitude
153.26376°
Altitude
356.042 km
Speed
7.697 km/s
True Right ascension
04h 40m 18s
True Declination
0° 00' 00"
Sunlit
Object was in full shadow at epoch
Visualization orbit readout
Latitude
Unknown
Longitude
Unknown
Altitude
Unknown
Speed
Unknown
Apparent Right ascension
Unknown
Apparent Declination
Unknown
Sunlit
N/A
Visualization observer readout
Local Sidereal Time
18:05:16
Azimuth
Unknown
Elevation
Unknown
Doppler factor
Unknown
Orbital elements
Apogee altitude
360.113 km
Perigee altitude
356.599 km
Semi-major axis
6,736.493 km
Eccentricity
0.00026
Inclination
43.002°
RAAN
70.076°
Arg. of periapsis
273.4815°
True anomaly
86.60523°
Mean anomaly
86.5754°
Eccentric anomaly
86.59032°
Mean motion
3.92548 °/min
Orbital period
91.71 mins
BSTAR
0.0016126
Loading maneuver chart data...
Computing Atmospheric mass density...
Loading historical data...
Loading historical data...
Loading historical data...
Loading historical data...
Loading historical data...
Loading historical data...
Loading historical data...

Documentation

Showing up to 5 results
|